Terminal Aerodrome Forecast
Issued by NWS Greer, SC

Home | Current Version | Previous Version | Text Only | Print | Product List | Glossary On
Versions: 1 2 3 4 5 6 7 8 9 10 11 12 13 14 15 16 17 18 19 20 21 22 23 24 25 26 27 28 29 30 31 32 33 34 35 36 37 38 39 40 41 42 43 44 45 46 47 48 49 50
000
FTUS42 KGSP 040247 AAA
TAFCLT
TAF AMD
KCLT 040247Z 0403/0424 20005KT 1 1/2SM BR BKN002
     FM040700 20006KT 1SM BR OVC002 WS020/22035KT
     FM041100 21004KT 1/4SM FG OVC001 WS020/23040KT
     FM041500 21014KT 4SM BR BKN015
     FM042000 22015G23KT P6SM BKN035=

USA.gov is the U.S. government's official web portal to all federal, state and local government web resources and services.